Location: Rancho Del Sol Observatory
(38.7214°N, 120.6350°W)
Time: 18:48:05
(UTC-07:00)

Cosmos 2221 Rocket - Visible Passes

Search period start: 27 March 2015 00:00
Search period end: 06 April 2015 00:00
Orbit: 622 x 649 km, 82.5° (Epoch: 27 March)

Date Brightness Start Highest point End Pass type
(mag) Time Alt. Az. Time Alt. Az. Time Alt. Az.
02 Apr 6.3 22:28:56 12° N 22:28:56 12° N 22:29:15 10° N visible
03 Apr 6.3 22:50:41 15° N 22:50:41 15° N 22:51:35 10° N visible
04 Apr 5.9 21:34:56 13° NE 21:34:56 13° NE 21:35:29 10° NNE visible
04 Apr 6.5 23:12:22 15° NNW 23:12:22 15° NNW 23:13:24 10° NNW visible
05 Apr 5.3 21:56:33 24° NNE 21:56:33 24° NNE 21:58:23 10° NNE visible
